| time (UTC) | temp C | wind direction | speed KPH | gust KPH | rain 1hr cm | rain 24hr cm | rain mn cm | humidity % | barometer mb |
| 20260510225624 | 17 | 3 | 3.2 | 4.8 | 0.00 | 0.03 | 0.03 | 48 | 1017.8 |
| 20260510225120 | 17 | 358 | 3.2 | 3.2 | 0.00 | 0.03 | 0.03 | 49 | 1017.8 |
| 20260510224615 | 17 | 13 | 0.0 | 1.6 | 0.00 | 0.03 | 0.03 | 51 | 1017.6 |
| 20260510224112 | 17 | 42 | 4.8 | 8.0 | 0.00 | 0.03 | 0.03 | 49 | 1017.8 |
| 20260510223610 | 17 | 12 | 3.2 | 3.2 | 0.00 | 0.03 | 0.03 | 49 | 1017.6 |
| 20260510223107 | 18 | 15 | 4.8 | 4.8 | 0.00 | 0.03 | 0.03 | 49 | 1017.8 |
| 20260510222604 | 18 | 47 | 4.8 | 4.8 | 0.00 | 0.03 | 0.03 | 49 | 1017.9 |
| 20260510222101 | 18 | 354 | 6.4 | 8.0 | 0.00 | 0.03 | 0.03 | 47 | 1017.7 |
| 20260510221555 | 18 | 23 | 4.8 | 4.8 | 0.00 | 0.03 | 0.03 | 49 | 1017.7 |
| 20260510221052 | 17 | 15 | 3.2 | 3.2 | 0.00 | 0.03 | 0.03 | 50 | 1017.6 |
| 20260510220549 | 18 | 4 | 6.4 | 9.7 | 0.00 | 0.03 | 0.03 | 49 | 1017.6 |
| 20260510220044 | 18 | 333 | 3.2 | 3.2 | 0.00 | 0.03 | 0.03 | 48 | 1017.7 |
| 20260510215542 | 18 | 6 | 3.2 | 3.2 | 0.00 | 0.03 | 0.03 | 47 | 1017.5 |
| 20260510215040 | 18 | 351 | 4.8 | 9.7 | 0.00 | 0.03 | 0.03 | 47 | 1017.3 |
| 20260510214537 | 20 | 1 | 1.6 | 3.2 | 0.00 | 0.03 | 0.03 | 47 | 1017.2 |
| 20260510214033 | 19 | 28 | 1.6 | 1.6 | 0.00 | 0.03 | 0.03 | 46 | 1017.2 |
| 20260510213531 | 19 | 359 | 4.8 | 4.8 | 0.00 | 0.03 | 0.03 | 45 | 1017.0 |
| 20260510213026 | 19 | 15 | 4.8 | 4.8 | 0.00 | 0.03 | 0.03 | 45 | 1017.0 |
| 20260510212523 | 18 | 11 | 1.6 | 1.6 | 0.00 | 0.03 | 0.03 | 48 | 1016.9 |
| 20260510212020 | 19 | 16 | 8.0 | 11.3 | 0.00 | 0.03 | 0.03 | 47 | 1016.7 |
| 20260510211517 | 19 | 34 | 3.2 | 4.8 | 0.00 | 0.03 | 0.03 | 45 | 1016.8 |
| 20260510211012 | 19 | 25 | 6.4 | 9.7 | 0.00 | 0.03 | 0.03 | 44 | 1016.6 |
| 20260510210509 | 18 | 17 | 0.0 | 1.6 | 0.00 | 0.03 | 0.03 | 48 | 1016.8 |
| 20260510210009 | 19 | 20 | 6.4 | 9.7 | 0.00 | 0.03 | 0.03 | 46 | 1016.8 |
| 20260510205508 | 18 | 42 | 4.8 | 4.8 | 0.00 | 0.03 | 0.03 | 46 | 1016.8 |
| 20260510205004 | 19 | 37 | 8.0 | 12.9 | 0.00 | 0.03 | 0.03 | 44 | 1016.9 |
| 20260510204501 | 19 | 350 | 1.6 | 3.2 | 0.00 | 0.03 | 0.03 | 46 | 1016.8 |
| 20260510203957 | 20 | 23 | 6.4 | 8.0 | 0.00 | 0.03 | 0.03 | 46 | 1017.0 |
| 20260510203455 | 19 | 0 | 3.2 | 3.2 | 0.00 | 0.03 | 0.03 | 45 | 1017.1 |
| 20260510202949 | 18 | 8 | 4.8 | 4.8 | 0.00 | 0.03 | 0.03 | 44 | 1016.9 |
| 20260510202445 | 19 | 7 | 4.8 | 4.8 | 0.00 | 0.03 | 0.03 | 48 | 1017.0 |
| 20260510201942 | 20 | 353 | 4.8 | 9.7 | 0.00 | 0.03 | 0.03 | 46 | 1016.9 |
| 20260510201439 | 19 | 23 | 3.2 | 3.2 | 0.00 | 0.03 | 0.03 | 42 | 1017.0 |
| 20260510200935 | 20 | 12 | 4.8 | 8.0 | 0.00 | 0.03 | 0.03 | 42 | 1016.9 |
| 20260510200430 | 20 | 18 | 1.6 | 3.2 | 0.00 | 0.03 | 0.03 | 43 | 1016.9 |
| 20260510195924 | 20 | 6 | 1.6 | 1.6 | 0.00 | 0.03 | 0.03 | 44 | 1017.0 |
| 20260510195421 | 20 | 19 | 1.6 | 4.8 | 0.00 | 0.03 | 0.03 | 42 | 1017.0 |
| 20260510194916 | 20 | 3 | 1.6 | 1.6 | 0.00 | 0.03 | 0.03 | 44 | 1017.0 |
| 20260510194413 | 20 | 17 | 8.0 | 12.9 | 0.00 | 0.03 | 0.03 | 44 | 1017.0 |
| 20260510193909 | 20 | 6 | 3.2 | 3.2 | 0.00 | 0.03 | 0.03 | 45 | 1017.0 |
| 20260510193404 | 20 | 5 | 3.2 | 4.8 | 0.00 | 0.03 | 0.03 | 45 | 1017.0 |
| 20260510192900 | 20 | 4 | 0.0 | 1.6 | 0.00 | 0.03 | 0.03 | 41 | 1017.1 |
| 20260510192355 | 21 | 28 | 1.6 | 1.6 | 0.00 | 0.03 | 0.03 | 43 | 1017.0 |
| 20260510191851 | 21 | 346 | 3.2 | 4.8 | 0.00 | 0.03 | 0.03 | 44 | 1017.0 |
| 20260510191347 | 21 | 22 | 1.6 | 3.2 | 0.00 | 0.03 | 0.03 | 45 | 1017.0 |
| 20260510190845 | 20 | 2 | 1.6 | 1.6 | 0.00 | 0.03 | 0.03 | 50 | 1017.0 |
| 20260510190342 | 20 | 27 | 4.8 | 8.0 | 0.00 | 0.03 | 0.03 | 44 | 1017.1 |
| 20260510185838 | 20 | 16 | 3.2 | 4.8 | 0.00 | 0.03 | 0.03 | 46 | 1017.1 |
| 20260510185336 | 20 | 305 | 0.0 | 0.0 | 0.00 | 0.03 | 0.03 | 47 | 1016.9 |
| 20260510184833 | 20 | 45 | 4.8 | 4.8 | 0.00 | 0.03 | 0.03 | 46 | 1016.9 |
| 20260510184330 | 20 | 8 | 3.2 | 3.2 | 0.00 | 0.03 | 0.03 | 46 | 1017.0 |
| 20260510183830 | 20 | 203 | 3.2 | 3.2 | 0.00 | 0.03 | 0.03 | 44 | 1017.1 |
| 20260510183326 | 19 | 9 | 1.6 | 1.6 | 0.00 | 0.03 | 0.03 | 46 | 1017.1 |
| 20260510182822 | 20 | 19 | 4.8 | 4.8 | 0.00 | 0.03 | 0.03 | 45 | 1016.8 |
| 20260510182318 | 20 | 47 | 4.8 | 8.0 | 0.00 | 0.03 | 0.03 | 42 | 1016.9 |
| 20260510181814 | 20 | 8 | 1.6 | 1.6 | 0.00 | 0.03 | 0.03 | 46 | 1016.9 |
| 20260510181312 | 20 | 0 | 1.6 | 3.2 | 0.00 | 0.03 | 0.03 | 48 | 1017.0 |
| 20260510180808 | 19 | 42 | 11.3 | 12.9 | 0.00 | 0.03 | 0.03 | 44 | 1016.8 |
| 20260510180305 | 20 | 12 | 4.8 | 4.8 | 0.00 | 0.03 | 0.03 | 46 | 1017.0 |
| 20260510175802 | 20 | 2 | 1.6 | 1.6 | 0.00 | 0.03 | 0.03 | 41 | 1017.1 |
| 20260510175257 | 18 | 357 | 1.6 | 3.2 | 0.00 | 0.03 | 0.03 | 42 | 1016.8 |
| 20260510174754 | 19 | 63 | 4.8 | 9.7 | 0.00 | 0.03 | 0.03 | 45 | 1016.8 |
| 20260510174252 | 19 | 21 | 3.2 | 4.8 | 0.00 | 0.03 | 0.03 | 45 | 1016.6 |
| 20260510173748 | 18 | 335 | 3.2 | 4.8 | 0.00 | 0.03 | 0.03 | 47 | 1016.7 |
| 20260510173243 | 20 | 45 | 8.0 | 12.9 | 0.00 | 0.03 | 0.03 | 45 | 1016.4 |
| 20260510172739 | 18 | 25 | 0.0 | 0.0 | 0.00 | 0.03 | 0.03 | 54 | 1016.6 |
| 20260510172235 | 20 | 353 | 4.8 | 4.8 | 0.00 | 0.03 | 0.03 | 43 | 1016.8 |
| 20260510171732 | 20 | 335 | 1.6 | 3.2 | 0.00 | 0.03 | 0.03 | 40 | 1016.8 |
| 20260510171230 | 20 | 291 | 0.0 | 1.6 | 0.00 | 0.03 | 0.03 | 42 | 1016.8 |
| 20260510170727 | 19 | 51 | 4.8 | 8.0 | 0.00 | 0.03 | 0.03 | 46 | 1016.7 |
| 20260510170222 | 19 | 7 | 1.6 | 1.6 | 0.00 | 0.03 | 0.03 | 46 | 1016.8 |
| 20260510165718 | 20 | 6 | 1.6 | 1.6 | 0.00 | 0.03 | 0.03 | 45 | 1016.8 |
| 20260510165215 | 19 | 302 | 1.6 | 1.6 | 0.00 | 0.03 | 0.03 | 43 | 1016.9 |
| 20260510164712 | 18 | 353 | 1.6 | 1.6 | 0.00 | 0.03 | 0.03 | 50 | 1017.1 |
| 20260510164210 | 18 | 357 | 3.2 | 3.2 | 0.00 | 0.03 | 0.03 | 47 | 1016.8 |
| 20260510163704 | 18 | 1 | 1.6 | 1.6 | 0.00 | 0.03 | 0.03 | 48 | 1016.9 |
| 20260510163201 | 19 | 23 | 4.8 | 4.8 | 0.00 | 0.03 | 0.03 | 44 | 1017.0 |
| 20260510162700 | 19 | 37 | 1.6 | 1.6 | 0.00 | 0.03 | 0.03 | 48 | 1017.1 |
| 20260510162157 | 18 | 41 | 4.8 | 4.8 | 0.00 | 0.03 | 0.03 | 47 | 1016.9 |
| 20260510161653 | 18 | 353 | 6.4 | 9.7 | 0.00 | 0.03 | 0.03 | 50 | 1016.7 |
| 20260510161150 | 18 | 4 | 4.8 | 8.0 | 0.00 | 0.03 | 0.03 | 47 | 1017.0 |
| 20260510160647 | 18 | 23 | 4.8 | 8.0 | 0.00 | 0.03 | 0.03 | 48 | 1016.7 |
| 20260510160142 | 18 | 42 | 3.2 | 3.2 | 0.00 | 0.03 | 0.03 | 46 | 1016.8 |
| 20260510155638 | 18 | 48 | 4.8 | 8.0 | 0.00 | 0.03 | 0.03 | 46 | 1016.8 |
| 20260510155134 | 18 | 23 | 4.8 | 8.0 | 0.00 | 0.03 | 0.03 | 50 | 1016.7 |
| 20260510154630 | 17 | 6 | 8.0 | 9.7 | 0.00 | 0.03 | 0.03 | 48 | 1016.8 |
| 20260510154125 | 17 | 354 | 6.4 | 9.7 | 0.00 | 0.03 | 0.03 | 50 | 1016.7 |
| 20260510153621 | 18 | 4 | 0.0 | 1.6 | 0.00 | 0.03 | 0.03 | 52 | 1016.8 |
| 20260510153118 | 17 | 54 | 3.2 | 3.2 | 0.00 | 0.03 | 0.03 | 52 | 1016.6 |
| 20260510152614 | 17 | 15 | 1.6 | 1.6 | 0.00 | 0.03 | 0.03 | 50 | 1016.4 |
| 20260510152111 | 17 | 42 | 3.2 | 3.2 | 0.00 | 0.03 | 0.03 | 54 | 1016.7 |
| 20260510151607 | 17 | 39 | 8.0 | 11.3 | 0.00 | 0.03 | 0.03 | 52 | 1016.6 |
| 20260510151106 | 16 | 3 | 6.4 | 8.0 | 0.00 | 0.03 | 0.03 | 54 | 1016.2 |
| 20260510150600 | 16 | 17 | 6.4 | 8.0 | 0.00 | 0.03 | 0.03 | 56 | 1016.2 |
| 20260510150055 | 16 | 4 | 3.2 | 3.2 | 0.00 | 0.03 | 0.03 | 56 | 1016.1 |
| 20260510145553 | 16 | 39 | 6.4 | 8.0 | 0.00 | 0.03 | 0.03 | 57 | 1016.0 |
| 20260510145049 | 15 | 17 | 1.6 | 1.6 | 0.00 | 0.03 | 0.03 | 57 | 1016.0 |
| 20260510144546 | 15 | 12 | 6.4 | 9.7 | 0.00 | 0.03 | 0.03 | 56 | 1016.0 |
| 20260510144042 | 15 | 20 | 0.0 | 1.6 | 0.00 | 0.03 | 0.03 | 58 | 1015.9 |
| 20260510143537 | 15 | 1 | 4.8 | 4.8 | 0.00 | 0.03 | 0.03 | 57 | 1015.8 |
| 20260510143034 | 15 | 26 | 3.2 | 3.2 | 0.00 | 0.03 | 0.03 | 58 | 1015.7 |
| 20260510142530 | 15 | 19 | 3.2 | 3.2 | 0.00 | 0.03 | 0.03 | 57 | 1015.5 |
| 20260510142027 | 15 | 14 | 4.8 | 4.8 | 0.00 | 0.03 | 0.03 | 59 | 1015.4 |
| 20260510141524 | 15 | 348 | 4.8 | 8.0 | 0.00 | 0.03 | 0.03 | 61 | 1015.3 |
| 20260510141022 | 15 | 30 | 4.8 | 8.0 | 0.00 | 0.03 | 0.03 | 62 | 1015.4 |
| 20260510140517 | 15 | 350 | 6.4 | 9.7 | 0.00 | 0.03 | 0.03 | 63 | 1015.3 |
| 20260510140012 | 15 | 26 | 3.2 | 4.8 | 0.00 | 0.03 | 0.03 | 63 | 1015.6 |
| 20260510135507 | 15 | 32 | 3.2 | 3.2 | 0.00 | 0.03 | 0.03 | 64 | 1015.4 |
| 20260510135004 | 15 | 22 | 1.6 | 1.6 | 0.00 | 0.03 | 0.03 | 66 | 1015.3 |
| 20260510134502 | 15 | 2 | 4.8 | 4.8 | 0.00 | 0.03 | 0.03 | 69 | 1015.3 |
| 20260510133958 | 14 | 29 | 1.6 | 3.2 | 0.00 | 0.03 | 0.03 | 71 | 1015.3 |
| 20260510133454 | 13 | 9 | 1.6 | 3.2 | 0.00 | 0.03 | 0.03 | 71 | 1015.2 |
| 20260510132949 | 13 | 9 | 1.6 | 3.2 | 0.00 | 0.03 | 0.03 | 72 | 1015.3 |
| 20260510132447 | 14 | 22 | 1.6 | 1.6 | 0.00 | 0.03 | 0.03 | 73 | 1015.1 |
| 20260510131944 | 14 | 4 | 3.2 | 3.2 | 0.00 | 0.03 | 0.03 | 72 | 1015.1 |
| 20260510131442 | 14 | 4 | 1.6 | 1.6 | 0.00 | 0.03 | 0.03 | 73 | 1014.9 |
| 20260510130938 | 13 | 354 | 4.8 | 4.8 | 0.00 | 0.03 | 0.03 | 74 | 1014.9 |
| 20260510130435 | 13 | 358 | 1.6 | 1.6 | 0.00 | 0.03 | 0.03 | 77 | 1014.7 |
| 20260510125932 | 13 | 33 | 4.8 | 4.8 | 0.00 | 0.03 | 0.03 | 78 | 1014.8 |
| 20260510125428 | 13 | 355 | 1.6 | 1.6 | 0.00 | 0.03 | 0.03 | 79 | 1014.7 |
| 20260510124925 | 13 | 31 | 1.6 | 3.2 | 0.00 | 0.03 | 0.03 | 78 | 1014.7 |
| 20260510124421 | 13 | 344 | 4.8 | 4.8 | 0.00 | 0.03 | 0.03 | 78 | 1014.9 |
| 20260510123918 | 13 | 48 | 3.2 | 3.2 | 0.00 | 0.03 | 0.03 | 79 | 1014.7 |
| 20260510123414 | 13 | 36 | 1.6 | 3.2 | 0.00 | 0.03 | 0.03 | 80 | 1014.5 |
| 20260510122910 | 13 | 22 | 1.6 | 1.6 | 0.00 | 0.03 | 0.03 | 80 | 1014.7 |
| 20260510122405 | 12 | 20 | 0.0 | 0.0 | 0.00 | 0.03 | 0.03 | 82 | 1014.5 |
| 20260510121902 | 12 | 10 | 1.6 | 1.6 | 0.00 | 0.03 | 0.03 | 83 | 1014.6 |
| 20260510121359 | 12 | 25 | 1.6 | 1.6 | 0.00 | 0.03 | 0.03 | 82 | 1014.3 |
| 20260510120856 | 12 | 22 | 1.6 | 1.6 | 0.13 | 0.03 | 0.03 | 82 | 1014.2 |
| 20260510120354 | 12 | 15 | 0.0 | 1.6 | 0.13 | 0.03 | 0.03 | 81 | 1014.3 |
| 20260510115849 | 12 | 8 | 0.0 | 1.6 | 0.00 | 0.00 | 0.00 | 80 | 1014.1 |
| 20260510115346 | 12 | 12 | 3.2 | 3.2 | 0.00 | 0.00 | 0.00 | 79 | 1014.0 |
| 20260510114842 | 12 | 15 | 0.0 | 1.6 | 0.00 | 0.00 | 0.00 | 77 | 1013.9 |
| 20260510114340 | 12 | 32 | 1.6 | 1.6 | 0.00 | 0.00 | 0.00 | 76 | 1013.7 |
| 20260510113839 | 12 | 18 | 1.6 | 3.2 | 0.00 | 0.00 | 0.00 | 77 | 1013.8 |
| 20260510113336 | 12 | 21 | 1.6 | 1.6 | 0.00 | 0.00 | 0.00 | 77 | 1013.6 |
| 20260510112833 | 12 | 23 | 1.6 | 1.6 | 0.00 | 0.00 | 0.00 | 77 | 1013.7 |
| 20260510112330 | 13 | 1 | 1.6 | 3.2 | 0.00 | 0.00 | 0.00 | 77 | 1013.6 |
| 20260510111826 | 13 | 357 | 1.6 | 1.6 | 0.00 | 0.00 | 0.00 | 75 | 1013.5 |
| 20260510111323 | 13 | 15 | 0.0 | 1.6 | 0.00 | 0.00 | 0.00 | 74 | 1013.3 |
| 20260510110822 | 13 | 4 | 1.6 | 3.2 | 0.00 | 0.00 | 0.00 | 73 | 1013.3 |
| 20260510110320 | 13 | 25 | 3.2 | 3.2 | 0.00 | 0.00 | 0.00 | 74 | 1013.3 |
| 20260510105816 | 13 | 10 | 0.0 | 1.6 | 0.00 | 0.00 | 0.00 | 75 | 1013.3 |
| 20260510105310 | 13 | 6 | 1.6 | 1.6 | 0.00 | 0.00 | 0.00 | 75 | 1013.3 |
| 20260510104807 | 13 | 354 | 0.0 | 0.0 | 0.00 | 0.00 | 0.00 | 75 | 1013.2 |
| 20260510104305 | 13 | 8 | 0.0 | 1.6 | 0.00 | 0.00 | 0.00 | 75 | 1013.1 |
| 20260510103801 | 13 | 358 | 1.6 | 3.2 | 0.00 | 0.00 | 0.00 | 75 | 1012.9 |
| 20260510103257 | 13 | 5 | 0.0 | 1.6 | 0.00 | 0.00 | 0.00 | 76 | 1012.9 |
| 20260510102752 | 13 | 358 | 0.0 | 0.0 | 0.00 | 0.00 | 0.00 | 76 | 1012.9 |
| 20260510102248 | 13 | 5 | 1.6 | 1.6 | 0.00 | 0.00 | 0.00 | 77 | 1012.4 |
| 20260510101746 | 13 | 7 | 0.0 | 1.6 | 0.00 | 0.00 | 0.00 | 77 | 1012.5 |
| 20260510101244 | 13 | 352 | 0.0 | 1.6 | 0.00 | 0.00 | 0.00 | 78 | 1012.2 |
| 20260510100739 | 13 | 8 | 0.0 | 0.0 | 0.00 | 0.00 | 0.00 | 80 | 1012.3 |
| 20260510100238 | 13 | 9 | 0.0 | 0.0 | 0.00 | 0.00 | 0.00 | 80 | 1012.0 |
| 20260510095733 | 13 | 356 | 1.6 | 1.6 | 0.00 | 0.00 | 0.00 | 80 | 1012.0 |
| 20260510095228 | 13 | 1 | 1.6 | 1.6 | 0.00 | 0.00 | 0.00 | 80 | 1011.9 |
| 20260510094727 | 13 | 5 | 0.0 | 1.6 | 0.00 | 0.00 | 0.00 | 81 | 1011.9 |
| 20260510094223 | 13 | 6 | 0.0 | 0.0 | 0.00 | 0.00 | 0.00 | 81 | 1011.8 |
| 20260510093719 | 13 | 5 | 0.0 | 1.6 | 0.00 | 0.00 | 0.00 | 81 | 1011.7 |
| 20260510093217 | 13 | 346 | 0.0 | 1.6 | 0.00 | 0.00 | 0.00 | 84 | 1011.7 |
| 20260510092713 | 13 | 354 | 0.0 | 1.6 | 0.00 | 0.00 | 0.00 | 87 | 1011.7 |
| 20260510092208 | 13 | 356 | 0.0 | 0.0 | 0.00 | 0.00 | 0.00 | 89 | 1011.7 |
| 20260510091704 | 13 | 3 | 0.0 | 0.0 | 0.00 | 0.00 | 0.00 | 89 | 1011.6 |
| 20260510091201 | 13 | 19 | 0.0 | 1.6 | 0.00 | 0.00 | 0.00 | 90 | 1011.3 |
| 20260510090657 | 13 | 358 | 0.0 | 0.0 | 0.00 | 0.00 | 0.00 | 90 | 1011.1 |
| 20260510090154 | 13 | 11 | 0.0 | 0.0 | 0.00 | 0.00 | 0.00 | 91 | 1011.2 |
| 20260510085649 | 13 | 5 | 0.0 | 1.6 | 0.00 | 0.00 | 0.00 | 91 | 1011.1 |
| 20260510085144 | 13 | 356 | 0.0 | 0.0 | 0.00 | 0.00 | 0.00 | 91 | 1011.0 |
| 20260510084641 | 13 | 18 | 0.0 | 0.0 | 0.00 | 0.00 | 0.00 | 91 | 1010.8 |
| 20260510084138 | 13 | 8 | 0.0 | 0.0 | 0.00 | 0.00 | 0.00 | 91 | 1011.0 |
| 20260510083634 | 13 | 17 | 0.0 | 1.6 | 0.00 | 0.00 | 0.00 | 90 | 1010.9 |
| 20260510083131 | 13 | 10 | 0.0 | 0.0 | 0.00 | 0.00 | 0.00 | 89 | 1010.3 |
| 20260510082627 | 13 | 11 | 0.0 | 0.0 | 0.00 | 0.00 | 0.00 | 88 | 1010.5 |
| 20260510082123 | 13 | 354 | 0.0 | 1.6 | 0.00 | 0.00 | 0.00 | 88 | 1010.5 |
| 20260510081618 | 14 | 13 | 0.0 | 0.0 | 0.00 | 0.00 | 0.00 | 88 | 1010.7 |
| 20260510081114 | 14 | 113 | 0.0 | 0.0 | 0.00 | 0.00 | 0.00 | 87 | 1010.5 |
| 20260510080613 | 14 | 113 | 0.0 | 0.0 | 0.00 | 0.00 | 0.00 | 86 | 1010.2 |
| 20260510080111 | 14 | 101 | 0.0 | 0.0 | 0.00 | 0.00 | 0.00 | 86 | 1010.2 |
| 20260510075608 | 14 | 101 | 0.0 | 0.0 | 0.00 | 0.00 | 0.00 | 86 | 1010.4 |
| 20260510075105 | 15 | 101 | 0.0 | 0.0 | 0.00 | 0.00 | 0.00 | 85 | 1010.1 |
| 20260510074602 | 15 | 101 | 1.6 | 1.6 | 0.00 | 0.00 | 0.00 | 84 | 1010.0 |
| 20260510074057 | 15 | 101 | 1.6 | 1.6 | 0.00 | 0.00 | 0.00 | 84 | 1010.0 |
| 20260510073553 | 15 | 356 | 0.0 | 1.6 | 0.00 | 0.00 | 0.00 | 83 | 1009.9 |
| 20260510073051 | 15 | 17 | 0.0 | 0.0 | 0.00 | 0.00 | 0.00 | 82 | 1009.8 |
| 20260510072547 | 15 | 7 | 0.0 | 1.6 | 0.00 | 0.00 | 0.00 | 80 | 1009.9 |
| 20260510072043 | 15 | 36 | 0.0 | 0.0 | 0.00 | 0.00 | 0.00 | 81 | 1009.9 |
| 20260510071539 | 15 | 327 | 3.2 | 3.2 | 0.00 | 0.00 | 0.00 | 83 | 1009.8 |
| 20260510071037 | 15 | 39 | 3.2 | 4.8 | 0.00 | 0.00 | 0.00 | 84 | 1010.1 |
| 20260510070534 | 15 | 26 | 0.0 | 0.0 | 0.00 | 0.00 | 0.00 | 85 | 1009.8 |
| 20260510070031 | 15 | 42 | 1.6 | 1.6 | 0.00 | 0.00 | 0.00 | 85 | 1010.2 |
| 20260510065527 | 15 | 144 | 1.6 | 1.6 | 0.00 | 0.00 | 0.00 | 85 | 1010.3 |
| 20260510065023 | 15 | 54 | 0.0 | 1.6 | 0.00 | 0.00 | 0.00 | 84 | 1010.5 |
| 20260510064520 | 15 | 24 | 0.0 | 1.6 | 0.00 | 0.00 | 0.00 | 84 | 1010.3 |
| 20260510064017 | 15 | 29 | 0.0 | 0.0 | 0.00 | 0.00 | 0.00 | 84 | 1010.0 |
| 20260510063514 | 15 | 37 | 0.0 | 1.6 | 0.00 | 0.00 | 0.00 | 84 | 1010.3 |
| 20260510063011 | 15 | 33 | 0.0 | 0.0 | 0.00 | 0.00 | 0.00 | 85 | 1010.3 |
| 20260510062506 | 15 | 50 | 0.0 | 1.6 | 0.00 | 0.00 | 0.00 | 84 | 1010.1 |
| 20260510062002 | 16 | 35 | 0.0 | 0.0 | 0.00 | 0.00 | 0.00 | 82 | 1010.4 |
| 20260510061459 | 16 | 358 | 0.0 | 0.0 | 0.00 | 0.00 | 0.00 | 80 | 1010.2 |
| 20260510060955 | 16 | 15 | 0.0 | 0.0 | 0.00 | 0.00 | 0.00 | 78 | 1009.9 |
| 20260510060452 | 16 | 29 | 1.6 | 1.6 | 0.00 | 0.00 | 0.00 | 78 | 1010.3 |
| 20260510055948 | 16 | 57 | 0.0 | 1.6 | 0.00 | 0.00 | 0.00 | 77 | 1010.3 |
| 20260510055444 | 16 | 1 | 1.6 | 1.6 | 0.00 | 0.00 | 0.00 | 77 | 1010.3 |
| 20260510054942 | 16 | 200 | 1.6 | 3.2 | 0.00 | 0.00 | 0.00 | 76 | 1010.6 |
| 20260510054437 | 16 | 352 | 1.6 | 1.6 | 0.00 | 0.00 | 0.00 | 76 | 1010.4 |
| 20260510053932 | 16 | 48 | 0.0 | 1.6 | 0.00 | 0.00 | 0.00 | 77 | 1010.5 |
| 20260510053428 | 16 | 13 | 1.6 | 1.6 | 0.00 | 0.00 | 0.00 | 78 | 1010.5 |
| 20260510052925 | 16 | 285 | 1.6 | 1.6 | 0.00 | 0.00 | 0.00 | 78 | 1010.5 |
| 20260510052420 | 16 | 22 | 0.0 | 0.0 | 0.00 | 0.00 | 0.00 | 79 | 1010.3 |
| 20260510051917 | 16 | 15 | 0.0 | 1.6 | 0.00 | 0.00 | 0.00 | 79 | 1010.2 |
| 20260510051414 | 16 | 28 | 0.0 | 0.0 | 0.00 | 0.00 | 0.00 | 79 | 1010.1 |
| 20260510050910 | 16 | 357 | 0.0 | 0.0 | 0.00 | 0.00 | 0.00 | 79 | 1010.0 |
| 20260510050407 | 16 | 309 | 0.0 | 1.6 | 0.00 | 0.00 | 0.00 | 79 | 1009.7 |
| 20260510045904 | 16 | 346 | 1.6 | 1.6 | 0.00 | 0.00 | 0.00 | 78 | 1009.8 |
| 20260510045401 | 16 | 57 | 1.6 | 1.6 | 0.00 | 0.00 | 0.00 | 78 | 1009.8 |
| 20260510044858 | 16 | 19 | 0.0 | 1.6 | 0.00 | 0.00 | 0.00 | 77 | 1009.8 |
| 20260510044354 | 16 | 178 | 1.6 | 3.2 | 0.00 | 0.00 | 0.00 | 77 | 1009.8 |
| 20260510043851 | 16 | 346 | 0.0 | 0.0 | 0.00 | 0.00 | 0.00 | 77 | 1009.6 |
| 20260510043347 | 16 | 24 | 0.0 | 0.0 | 0.00 | 0.00 | 0.00 | 77 | 1009.5 |
| 20260510042845 | 16 | 306 | 1.6 | 1.6 | 0.00 | 0.00 | 0.00 | 77 | 1009.6 |
| 20260510042341 | 16 | 204 | 1.6 | 1.6 | 0.00 | 0.00 | 0.00 | 77 | 1009.5 |
| 20260510041837 | 16 | 74 | 1.6 | 1.6 | 0.00 | 0.00 | 0.00 | 77 | 1009.6 |
| 20260510041334 | 16 | 350 | 1.6 | 3.2 | 0.00 | 0.00 | 0.00 | 78 | 1009.4 |
| 20260510040832 | 16 | 8 | 0.0 | 1.6 | 0.00 | 0.00 | 0.00 | 78 | 1009.4 |
| 20260510040328 | 16 | 47 | 0.0 | 0.0 | 0.00 | 0.00 | 0.00 | 78 | 1009.3 |
| 20260510035824 | 16 | 166 | 0.0 | 1.6 | 0.00 | 0.66 | 0.66 | 77 | 1009.6 |
| 20260510035320 | 16 | 6 | 1.6 | 1.6 | 0.00 | 0.66 | 0.66 | 76 | 1009.8 |
| 20260510034816 | 16 | 160 | 1.6 | 1.6 | 0.00 | 0.66 | 0.66 | 76 | 1009.5 |
| 20260510034314 | 16 | 23 | 0.0 | 1.6 | 0.00 | 0.66 | 0.66 | 76 | 1009.6 |
| 20260510033810 | 16 | 5 | 0.0 | 0.0 | 0.00 | 0.66 | 0.66 | 75 | 1009.5 |
| 20260510033307 | 16 | 22 | 0.0 | 0.0 | 0.00 | 0.66 | 0.66 | 75 | 1009.4 |
| 20260510032804 | 16 | 207 | 3.2 | 3.2 | 0.00 | 0.66 | 0.66 | 74 | 1009.5 |
| 20260510032300 | 16 | 24 | 0.0 | 0.0 | 0.00 | 0.66 | 0.66 | 75 | 1009.5 |
| 20260510031755 | 16 | 24 | 0.0 | 0.0 | 0.00 | 0.66 | 0.66 | 74 | 1009.1 |
| 20260510031251 | 17 | 3 | 0.0 | 0.0 | 0.00 | 0.66 | 0.66 | 74 | 1009.2 |
| 20260510030745 | 17 | 17 | 0.0 | 0.0 | 0.00 | 0.66 | 0.66 | 73 | 1009.2 |
| 20260510030243 | 17 | 30 | 0.0 | 0.0 | 0.00 | 0.66 | 0.66 | 74 | 1009.0 |
| 20260510025740 | 17 | 19 | 0.0 | 0.0 | 0.00 | 0.66 | 0.66 | 74 | 1009.1 |
| 20260510025238 | 17 | 177 | 1.6 | 3.2 | 0.00 | 0.66 | 0.66 | 73 | 1009.4 |
| 20260510024734 | 17 | 197 | 1.6 | 3.2 | 0.00 | 0.66 | 0.66 | 73 | 1009.3 |
| 20260510024230 | 17 | 216 | 0.0 | 0.0 | 0.00 | 0.66 | 0.66 | 73 | 1009.1 |
| 20260510023726 | 17 | 39 | 0.0 | 0.0 | 0.00 | 0.66 | 0.66 | 73 | 1009.0 |
| 20260510023224 | 17 | 124 | 1.6 | 3.2 | 0.00 | 0.66 | 0.66 | 72 | 1009.1 |
| 20260510022720 | 17 | 214 | 1.6 | 1.6 | 0.00 | 0.66 | 0.66 | 72 | 1008.9 |
| 20260510022220 | 17 | 176 | 1.6 | 1.6 | 0.00 | 0.66 | 0.66 | 72 | 1008.7 |
| 20260510021715 | 17 | 152 | 0.0 | 1.6 | 0.00 | 0.66 | 0.66 | 71 | 1008.9 |
| 20260510021212 | 17 | 23 | 0.0 | 0.0 | 0.00 | 0.66 | 0.66 | 71 | 1008.8 |
| 20260510020708 | 17 | 168 | 0.0 | 1.6 | 0.00 | 0.66 | 0.66 | 70 | 1008.8 |
| 20260510020203 | 17 | 158 | 0.0 | 1.6 | 0.00 | 0.66 | 0.66 | 70 | 1008.7 |
| 20260510015659 | 17 | 5 | 0.0 | 0.0 | 0.00 | 0.66 | 0.66 | 70 | 1008.6 |
| 20260510015155 | 17 | 109 | 1.6 | 1.6 | 0.00 | 0.66 | 0.66 | 70 | 1008.6 |
| 20260510014650 | 17 | 106 | 0.0 | 0.0 | 0.00 | 0.66 | 0.66 | 70 | 1008.6 |
| 20260510014148 | 17 | 80 | 0.0 | 1.6 | 0.00 | 0.66 | 0.66 | 69 | 1008.6 |
| 20260510013643 | 17 | 185 | 3.2 | 4.8 | 0.00 | 0.66 | 0.66 | 69 | 1008.5 |
| 20260510013139 | 18 | 166 | 0.0 | 0.0 | 0.00 | 0.66 | 0.66 | 68 | 1008.3 |
| 20260510012638 | 18 | 160 | 0.0 | 1.6 | 0.00 | 0.66 | 0.66 | 68 | 1008.1 |
| 20260510012134 | 18 | 40 | 0.0 | 1.6 | 0.00 | 0.66 | 0.66 | 67 | 1008.0 |
| 20260510011629 | 18 | 86 | 0.0 | 1.6 | 0.00 | 0.66 | 0.66 | 68 | 1008.1 |
| 20260510011125 | 18 | 173 | 0.0 | 0.0 | 0.00 | 0.66 | 0.66 | 68 | 1008.0 |
| 20260510010621 | 18 | 181 | 1.6 | 3.2 | 0.00 | 0.66 | 0.66 | 67 | 1007.9 |
| 20260510010119 | 18 | 318 | 0.0 | 0.0 | 0.00 | 0.66 | 0.66 | 67 | 1007.6 |
| 20260510005614 | 18 | 46 | 0.0 | 1.6 | 0.00 | 0.66 | 0.66 | 66 | 1008.0 |
| 20260510005112 | 18 | 27 | 0.0 | 0.0 | 0.00 | 0.66 | 0.66 | 66 | 1007.8 |
| 20260510004609 | 18 | 313 | 0.0 | 0.0 | 0.00 | 0.66 | 0.66 | 66 | 1007.9 |
| 20260510004107 | 19 | 141 | 1.6 | 1.6 | 0.00 | 0.66 | 0.66 | 65 | 1007.8 |
| 20260510003604 | 19 | 304 | 0.0 | 1.6 | 0.00 | 0.66 | 0.66 | 64 | 1007.6 |
| 20260510003100 | 20 | 359 | 1.6 | 1.6 | 0.00 | 0.66 | 0.66 | 64 | 1007.8 |
| 20260510002554 | 20 | 72 | 1.6 | 1.6 | 0.00 | 0.66 | 0.66 | 63 | 1007.5 |
| 20260510002052 | 20 | 214 | 1.6 | 3.2 | 0.00 | 0.66 | 0.66 | 62 | 1007.4 |
| 20260510001549 | 20 | 202 | 3.2 | 3.2 | 0.00 | 0.66 | 0.66 | 62 | 1007.3 |
| 20260510001048 | 20 | 197 | 0.0 | 0.0 | 0.00 | 0.66 | 0.66 | 61 | 1007.2 |
| 20260510000542 | 20 | 91 | 1.6 | 1.6 | 0.00 | 0.66 | 0.66 | 60 | 1007.2 |
| 20260510000039 | 20 | 353 | 1.6 | 1.6 | 0.00 | 0.66 | 0.66 | 60 | 1007.2 |
| 20260509235536 | 20 | 193 | 1.6 | 3.2 | 0.00 | 0.66 | 0.66 | 59 | 1007.2 |
| 20260509235033 | 21 | 184 | 1.6 | 1.6 | 0.00 | 0.66 | 0.66 | 59 | 1007.0 |
| 20260509234529 | 21 | 147 | 3.2 | 3.2 | 0.00 | 0.66 | 0.66 | 59 | 1007.1 |
| 20260509234027 | 21 | 184 | 4.8 | 4.8 | 0.00 | 0.66 | 0.66 | 57 | 1007.1 |
| 20260509233524 | 21 | 115 | 1.6 | 1.6 | 0.00 | 0.66 | 0.66 | 57 | 1007.1 |
| 20260509233021 | 21 | 188 | 3.2 | 3.2 | 0.00 | 0.66 | 0.66 | 56 | 1007.0 |
| 20260509232518 | 21 | 148 | 1.6 | 3.2 | 0.00 | 0.66 | 0.66 | 56 | 1007.2 |
| 20260509232015 | 21 | 140 | 1.6 | 1.6 | 0.00 | 0.66 | 0.66 | 56 | 1006.8 |
| 20260509231511 | 21 | 185 | 1.6 | 3.2 | 0.00 | 0.66 | 0.66 | 55 | 1006.8 |
| 20260509231009 | 21 | 175 | 4.8 | 11.3 | 0.00 | 0.66 | 0.66 | 54 | 1007.1 |
| 20260509230505 | 22 | 202 | 1.6 | 3.2 | 0.00 | 0.66 | 0.66 | 55 | 1006.9 |